Atqasuk Edward Burnell Sr Mem, AK

10:24 AM AKST on December 09, 2019 (GMT -0900)
Atqasuk Edward Burnell Sr Mem

Weather History for PATQ - September, 2019

Change the Weather History Date:

Thursday, September 12, 2019

  Actual Average (WUND) Record (WUND)
Temperature  
Mean Temperature 42 °F -  
Max Temperature 44 °F - - (-1)
Min Temperature 41 °F - - (-1)
Degree Days  
Heating Degree Days 22    
Moisture  
Dew Point 41 °F    
Average Humidity 98    
Maximum Humidity 100    
Minimum Humidity 93    
Precipitation  
Precipitation 0.00 in - - ()
Sea Level Pressure  
Sea Level Pressure 29.71 in    
Wind  
Wind Speed 14 mph (East)    
Max Wind Speed 23 mph    
Max Gust Speed 24 mph    
Visibility 2 miles    
Events Fog , Rain    
Averages and records for this station are not official NWS values.
T = Trace of Precipitation, MM = Missing Value Source: NWS Daily Summary

Daily Weather History Graph

Daily Weather History Graph

Search for Another Location

Airport or City:

Astronomy

Sep. 12, 2019 Rise Set
Actual Time 7:28 AM AKDT 9:20 PM AKDT
Civil Twilight 6:21 AM AKDT 10:27 PM AKDT
Nautical Twilight 4:42 AM AKDT 12:03 AM AKDT
Astronomical Twilight Sun does not rise Sun does not rise
Moon 10:18 PM AKDT (9/12) 4:15 AM AKDT (9/12)
Length of Visible Light 16h 05m
Length of Day
13h 51m
Waxing Gibbous, 98% of the Moon is Illuminated
Sep 12
Waxing Gibbous
Sep 13
Full
Sep 21
Last Quarter
Sep 28
New
Oct 5
First Quarter

Hourly Weather History & Observations

Time (AKDT) Temp. Windchill Dew Point Humidity Pressure Visibility Wind Dir Wind Speed Gust Speed Precip Events Conditions
12:56 AM 44.1 °F 38.6 °F 44.1 °F 100% 29.72 in 10.0 mi East 10.4 mph - N/A   Clear
1:56 AM 44.1 °F 38.6 °F 43.0 °F 96% 29.72 in 10.0 mi East 10.4 mph - N/A   Clear
2:43 AM 42.8 °F 35.8 °F 42.8 °F 100% 29.70 in 1.5 mi East 13.8 mph - N/A   Mostly Cloudy
2:47 AM 42.8 °F 37.5 °F 42.8 °F 100% 29.70 in 0.8 mi East 9.2 mph - N/A   Mostly Cloudy
2:56 AM 43.0 °F 36.4 °F 42.1 °F 97% 29.72 in 0.5 mi East 12.7 mph - N/A Fog Fog
3:48 AM 42.8 °F 35.4 °F 42.8 °F 100% 29.70 in 0.8 mi East 15.0 mph - N/A   Overcast
3:56 AM 42.1 °F 34.5 °F 42.1 °F 100% 29.73 in 0.5 mi East 15.0 mph - N/A Fog Fog
4:06 AM 42.8 °F 35.8 °F 42.8 °F 100% 29.70 in 1.0 mi East 13.8 mph - N/A   Overcast
4:21 AM 42.8 °F 36.2 °F 41.0 °F 93% 29.70 in 0.5 mi East 12.7 mph - N/A Fog Fog
4:34 AM 41.0 °F 33.9 °F 41.0 °F 100% 29.70 in 0.8 mi East 12.7 mph - N/A   Overcast
4:56 AM 41.0 °F 34.3 °F 41.0 °F 100% 29.72 in 0.8 mi East 11.5 mph - N/A   Overcast
5:56 AM 41.0 °F 32.8 °F 41.0 °F 100% 29.73 in 0.5 mi East 16.1 mph - 0.00 in Fog , Rain Light Rain
6:20 AM 41.0 °F 33.5 °F 41.0 °F 100% 29.70 in 1.0 mi East 13.8 mph - 0.00 in   Overcast
6:29 AM 41.0 °F 33.1 °F 41.0 °F 100% 29.70 in 0.8 mi ENE 15.0 mph - 0.00 in   Overcast
6:51 AM 41.0 °F 32.5 °F 39.2 °F 93% 29.70 in 1.0 mi ENE 17.3 mph - 0.00 in   Overcast
6:56 AM 41.0 °F 32.5 °F 39.9 °F 96% 29.72 in 1.0 mi ENE 17.3 mph - 0.00 in   Overcast
7:04 AM 41.0 °F 32.8 °F 39.2 °F 93% 29.70 in 0.5 mi East 16.1 mph - 0.00 in Fog , Rain Light Rain
7:19 AM 41.0 °F 33.1 °F 41.0 °F 100% 29.70 in 0.2 mi East 15.0 mph - 0.00 in Fog , Rain Light Rain
7:42 AM 41.0 °F 32.5 °F 41.0 °F 100% 29.70 in 0.5 mi ENE 17.3 mph - 0.00 in Fog , Rain Light Rain
8:05 AM 41.0 °F 31.9 °F 41.0 °F 100% 29.70 in 0.2 mi East 19.6 mph - 0.00 in Fog , Rain Light Rain
8:18 AM 41.0 °F 31.9 °F 41.0 °F 100% 29.70 in 1.2 mi East 19.6 mph - 0.00 in   Overcast
8:21 AM 41.0 °F 32.5 °F 41.0 °F 100% 29.70 in 5.0 mi East 17.3 mph - 0.00 in   Overcast
8:26 AM 42.8 °F 35.4 °F 41.0 °F 93% 29.70 in 1.2 mi East 15.0 mph - 0.00 in   Overcast
8:29 AM 42.8 °F 34.8 °F 41.0 °F 93% 29.70 in 0.8 mi East 17.3 mph - 0.00 in   Overcast
8:36 AM 41.0 °F 31.4 °F 41.0 °F 100% 29.69 in 1.2 mi East 21.9 mph - 0.00 in   Overcast
8:39 AM 41.0 °F 31.6 °F 41.0 °F 100% 29.69 in 4.0 mi East 20.7 mph - 0.00 in   Overcast
8:56 AM 41.0 °F 31.4 °F 41.0 °F 100% 29.72 in 8.0 mi East 21.9 mph - 0.00 in   Overcast
9:14 AM 42.8 °F 34.8 °F 41.0 °F 93% 29.70 in 1.8 mi East 17.3 mph 24.2 mph N/A   Overcast
9:17 AM 42.8 °F 34.5 °F 41.0 °F 93% 29.70 in 0.8 mi East 18.4 mph 24.2 mph 0.00 in Rain Light Rain
9:26 AM 42.8 °F 34.5 °F 41.0 °F 93% 29.70 in 0.5 mi East 18.4 mph - 0.00 in Fog , Rain Light Rain
9:48 AM 41.0 °F 32.2 °F 41.0 °F 100% 29.70 in 1.0 mi East 18.4 mph - 0.00 in Rain Light Rain
10:13 AM 41.0 °F 31.1 °F 41.0 °F 100% 29.70 in 3.0 mi East 23.0 mph - 0.00 in   Overcast
10:56 AM 42.1 °F 33.6 °F 42.1 °F 100% 29.73 in 9.0 mi East 18.4 mph - 0.00 in   Overcast